Temperature
17 17 16 16 16 16 16 16 16 16 16 16 16 16 16 16 16 16 15 15 15 15 15 15 15 15 15 16 16 16 16 16 16 16 16 15 15 15 15 14 14 14 14
16 16 16 16 16 16 16 16 16 16 16 16 16 16 16 15 15 15 15 15 15 15 15 15 15 15 15 15 15 15 15 15 15 15 15 15 14 14 14 14 14 14 14
16 16 16 16 16 16 16 16 16 16 16 16 16 16 15 15 15 15 15 15 15 15 15 15 15 14 14 14 14 15 15 15 14 14 14 14 13 13 13 13 13 13 13
16 16 16 16 16 16 16 16 16 16 16 16 16 16 15 15 15 15 15 15 15 15 15 14 14 14 14 14 14 14 14 14 14 14 14 13 13 12 12 12 12 12 12
16 16 16 16 16 16 16 16 16 16 15 15 15 15 15 15 15 15 15 15 15 14 14 14 14 14 14 14 13 13 13 13 13 13 13 13 12 12 11 11 11 11 11
16 16 16 16 16 16 16 15 15 15 15 15 15 15 15 15 15 15 15 14 14 14 14 14 14 13 13 13 13 13 13 12 12 12 12 11 11 10 10 10 10 10 10
16 16 16 16 16 16 16 15 15 15 15 15 15 15 15 14 14 14 14 14 14 13 13 13 13 13 12 12 12 12 12 12 11 11 10 10 9 9 9 9 9 9 9
16 16 16 15 15 15 15 15 15 15 15 15 14 14 14 14 14 14 14 13 13 13 12 12 12 12 11 11 11 11 11 10 10 10 9 9 9 9 8 8 8 8 8
15 15 15 15 15 15 15 15 15 15 14 14 14 14 14 14 13 13 13 13 12 12 11 11 11 11 11 10 10 10 9 9 9 9 8 8 8 8 8 7 7 7 8
15 15 15 15 15 15 15 14 14 14 14 14 13 13 13 13 12 12 12 12 11 11 10 10 10 10 9 9 9 8 8 7 7 7 7 7 6 6 6 6 6 6 6
15 15 15 14 14 14 14 14 14 13 13 13 13 12 12 12 12 11 11 11 10 10 9 9 9 9 8 8 8 8 7 7 6 6 6 6 6 5 5 5 5 5 5
14 14 14 14 14 14 14 13 13 13 12 12 12 11 11 10 10 10 10 10 10 9 9 8 8 8 7 7 7 7 6 6 6 6 6 5 5 5 4 4 4 4 4
14 14 14 13 13 13 13 13 12 12 11 11 11 10 10 9 9 9 9 9 9 8 8 7 7 7 6 6 6 6 5 5 5 5 5 5 4 4 4 4 4 3 3
13 13 12 12 12 12 11 11 11 11 11 10 10 9 9 8 8 8 8 7 7 7 7 6 6 5 5 5 5 5 5 4 4 4 4 4 4 4 4 3 3 3 4
12 12 11 11 11 11 10 10 10 10 10 10 9 9 8 7 7 7 7 6 6 6 6 5 5 5 5 5 4 4 4 4 4 4 4 4 3 3 3 3 3 3 3
11 11 11 10 10 10 9 9 8 8 8 8 8 8 7 7 6 6 6 6 6 5 5 5 5 5 4 4 4 4 4 3 3 3 3 3 3 3 3 3 3 3 3
11 10 10 9 9 9 8 8 7 7 7 7 7 7 6 6 5 5 5 5 5 5 5 5 4 4 4 4 4 4 3 3 2 3 3 2 2 2 2 2 2 2 2
10 9 9 8 8 8 8 7 7 7 6 6 5 5 5 5 5 5 4 4 4 4 4 4 4 4 4 3 3 3 3 3 2 2 2 2 2 2 2 2 2 1 1
9 8 8 8 8 8 7 7 7 6 6 5 4 4 4 4 4 4 4 4 5 4 4 4 4 3 3 3 2 2 2 2 2 2 2 1 1 1 1 1 1 1 1
8 8 8 7 7 7 7 6 6 5 5 5 4 4 4 4 4 4 4 4 4 4 4 4 3 3 2 2 2 2 2 2 2 2 1 1 1 1 1 1 1 1 1
7 7 7 7 7 6 6 6 6 5 5 5 5 4 4 5 4 4 4 4 4 4 3 3 3 2 2 2 2 2 2 2 1 1 1 1 1 1 1 1 1 1 1
7 7 7 7 6 6 6 6 6 6 5 5 4 4 4 5 5 4 4 4 3 3 3 3 3 2 2 1 1 1 1 1 1 0 0 0 0 0 0 0 0 0 0
7 7 7 6 6 6 6 6 6 6 5 5 5 5 4 4 4 4 3 3 3 3 2 2 2 2 1 1 1 0 0 0 -0 -1 -1 -0 -0 -0 -0 -0 -0 0 0
7 7 7 6 6 6 6 6 6 6 5 5 5 4 4 4 4 3 3 3 3 2 2 2 2 1 1 0 0 0 0 0 -0 -1 -1 -1 -1 -0 -0 -0 -0 0 -0
7 7 7 6 6 6 6 6 6 5 5 5 5 4 4 4 4 3 3 3 2 2 2 2 1 1 1 0 0 0 0 0 0 -0 -0 -1 -1 -1 -1 -1 -0 -0 -0
7 7 7 6 6 6 6 6 5 5 5 5 5 4 4 4 4 3 3 3 3 2 2 2 1 1 1 1 0 0 0 0 -0 -0 -0 -1 -1 -1 -1 -1 -1 -0 -0
Wind_Speed
9 9 9 9 9 9 9 10 9 9 10 10 10 11 10 10 9 8 8 8 8 7 6 6 5 4 4 4 4 4 4 4 5 3 2 1 1 3 3 3 3 2 2
9 9 9 8 8 8 9 9 9 9 10 10 10 10 10 10 10 9 9 8 8 8 7 6 6 5 4 4 3 4 3 3 5 4 2 1 0 1 2 3 3 3 2
9 9 9 9 9 8 8 8 8 8 9 9 10 10 10 10 10 9 8 8 7 6 6 6 6 5 4 3 3 3 3 3 3 3 3 0 1 1 2 2 2 3 4
9 9 9 9 9 9 8 8 8 9 9 9 9 9 9 9 9 9 8 7 6 5 4 4 3 4 4 3 3 2 2 2 2 3 2 1 1 1 3 3 3 2 4
9 9 9 9 9 8 8 8 8 8 9 9 9 8 8 7 8 8 8 7 7 6 5 5 5 7 7 4 1 1 0 1 1 2 1 1 1 3 3 4 5 4 3
8 8 8 8 9 8 8 8 8 8 8 9 9 9 8 6 8 9 8 7 7 7 7 7 8 9 11 12 13 13 9 4 2 2 2 2 3 4 4 5 5 6 4
8 8 8 8 9 9 9 8 8 8 8 8 8 8 7 8 11 10 8 7 7 6 6 6 6 7 8 9 11 13 14 14 10 5 5 5 4 5 6 6 5 6 6
8 8 8 9 9 9 8 8 8 8 8 8 8 8 8 9 12 12 11 8 8 8 7 7 7 7 7 7 9 10 11 10 9 8 8 7 7 7 6 5 5 5 5
8 8 8 8 9 10 9 9 8 8 8 8 8 9 10 10 11 12 11 10 10 11 9 9 9 9 9 7 9 10 9 9 13 14 12 9 8 8 8 6 6 6 7
7 7 7 7 9 10 10 10 9 9 9 9 10 9 10 10 10 10 10 9 11 11 10 11 13 12 10 8 8 8 8 6 5 5 5 3 3 4 4 6 7 7 7
7 7 8 8 9 10 10 9 10 10 11 11 12 11 11 10 11 10 8 8 10 11 10 9 10 13 13 12 9 8 6 3 3 3 3 3 3 4 5 7 7 7 8
9 9 8 8 8 9 10 10 11 12 12 12 12 12 10 10 11 12 13 12 11 12 10 9 10 13 13 11 9 7 2 2 2 2 3 4 4 5 6 7 7 7 7
10 9 9 10 8 9 10 10 10 10 10 10 10 11 10 9 11 15 16 16 14 11 11 14 13 12 10 9 8 2 1 2 3 3 4 5 5 5 6 5 6 6 8
11 11 10 10 10 10 8 8 8 8 9 10 10 11 10 9 9 9 10 12 14 13 12 12 10 7 6 6 4 3 4 5 5 5 5 5 5 5 6 7 8 8 8
12 12 12 11 12 12 11 10 9 8 8 10 10 10 10 10 8 9 8 8 8 9 8 6 5 5 5 5 5 4 4 4 4 5 5 5 6 6 7 7 7 8 9
12 12 11 11 11 12 13 14 20 16 18 17 14 13 12 13 14 14 14 13 11 6 5 6 5 5 4 4 4 4 4 5 5 5 5 6 7 7 8 8 8 8 9
13 12 11 11 11 12 12 13 14 15 20 19 18 17 16 15 15 14 13 11 7 2 5 6 5 5 4 4 4 4 4 5 5 5 6 7 7 8 8 8 8 9 9
14 13 12 11 11 11 11 12 12 13 13 11 13 15 15 14 13 12 10 8 6 4 5 6 5 4 4 4 4 4 4 4 5 6 6 7 7 8 8 9 9 10 11
13 11 11 11 11 11 11 11 12 13 12 12 11 10 11 12 10 7 4 4 6 6 6 5 5 4 4 4 4 4 4 5 6 7 7 7 8 8 8 9 9 10 10
12 15 13 11 11 11 11 11 11 11 12 11 11 10 10 9 8 6 5 5 5 6 5 5 5 4 4 4 4 4 4 5 6 6 7 7 8 8 9 10 10 10 10
12 13 14 12 11 11 11 11 11 11 11 10 10 8 4 7 7 7 6 5 5 5 5 4 4 3 3 3 4 5 6 6 6 7 8 8 8 9 9 9 10 10 10
11 11 11 11 11 10 10 10 10 10 11 10 10 9 3 5 6 6 6 5 5 4 4 3 3 4 4 4 4 5 6 6 7 8 8 8 8 9 9 9 10 11 11
11 12 11 11 11 10 10 10 9 9 9 9 8 8 6 6 6 6 5 5 4 4 4 3 3 3 4 4 4 5 6 7 8 9 9 9 9 9 9 10 11 12 12
11 12 12 11 10 10 10 9 9 9 9 8 8 7 6 6 6 6 5 4 4 4 3 3 3 3 3 3 4 5 6 8 10 10 11 10 10 10 10 10 11 12 12
11 11 10 10 10 9 9 9 9 8 8 7 7 6 6 6 6 5 4 4 4 3 2 2 1 1 2 3 4 6 7 8 9 11 12 11 10 10 11 12 12 13 12
10 10 9 9 9 8 8 8 8 8 7 7 6 6 5 5 5 4 4 3 3 3 2 1 1 1 2 2 3 5 5 7 9 11 12 11 11 10 12 11 14 13 13
Wind_Direction
183 184 186 190 194 200 201 202 198 196 193 193 193 190 189 188 186 192 200 192 198 197 197 197 204 226 224 224 227 238 244 254 259 255 205 130 48 332 7 329 302 277 106
182 182 184 189 190 196 199 197 195 192 191 193 191 188 189 189 189 191 196 193 195 197 196 194 199 200 209 235 237 240 246 262 264 267 257 214 134 327 334 304 320 319 339
179 183 186 189 190 193 194 187 186 185 186 187 185 184 185 185 187 189 189 190 190 191 194 195 201 202 200 208 233 241 242 239 259 262 249 296 271 347 306 293 312 331 310
178 181 186 188 188 187 184 181 181 179 177 175 176 178 179 182 182 182 181 176 168 166 170 170 175 180 181 191 199 222 247 248 232 250 253 244 275 350 314 316 312 322 320
179 183 184 182 180 178 175 175 173 172 171 168 167 166 166 172 177 172 167 162 157 153 140 127 113 94 72 63 75 114 189 250 245 247 268 291 3 360 345 330 326 320 319
180 180 175 171 169 167 167 165 160 159 158 155 157 156 158 161 130 137 153 150 148 144 134 123 113 101 91 79 68 59 47 40 19 355 8 30 25 9 353 333 334 326 321
174 171 167 165 162 161 156 153 153 150 146 144 146 144 140 124 118 125 133 143 139 131 128 129 121 110 111 107 95 86 68 57 48 40 52 38 32 19 354 342 349 334 325
170 167 164 160 156 150 145 142 142 138 135 134 132 130 125 115 112 116 118 123 114 108 106 112 113 108 102 106 103 90 75 61 56 59 62 50 42 20 357 336 323 307 287
161 161 162 159 154 146 140 138 135 130 127 124 121 120 117 111 109 118 122 118 110 102 96 92 99 98 79 84 102 100 93 87 82 84 82 80 68 43 9 346 343 327 324
154 152 149 148 147 142 138 135 129 123 119 116 111 108 110 108 102 107 117 121 115 108 97 85 76 83 72 64 95 98 94 85 80 91 95 106 64 58 33 2 346 332 326
138 133 130 130 132 131 128 126 125 120 115 111 104 97 95 96 94 89 94 119 121 115 106 97 88 80 73 63 68 82 80 75 81 69 62 46 26 13 7 5 354 334 327
127 124 121 120 122 124 123 122 122 122 117 110 104 97 89 85 84 84 81 83 98 108 105 102 98 90 81 73 75 75 45 303 50 40 27 19 9 5 360 348 340 326 313
120 117 115 112 110 115 119 121 121 121 119 117 114 108 101 96 89 85 84 84 86 98 100 102 105 107 106 92 89 75 336 32 34 25 20 12 2 354 330 322 317 307 290
117 113 109 107 102 95 95 103 114 121 123 123 119 115 111 107 105 105 104 101 103 105 108 111 112 106 107 108 120 85 56 41 22 20 8 356 345 338 335 338 332 328 319
113 109 106 102 100 92 82 70 82 78 100 116 118 118 118 114 100 92 106 108 110 112 122 124 118 111 95 82 72 58 47 39 25 13 359 351 346 343 341 338 331 323 324
114 110 109 108 106 104 100 84 64 72 73 75 81 97 94 99 103 95 92 92 94 106 118 107 99 89 81 71 62 56 45 30 15 2 355 350 346 341 336 335 334 331 328
113 113 112 113 113 112 112 111 104 82 71 70 76 88 101 108 106 105 105 105 109 133 111 100 98 91 80 68 54 43 36 30 4 354 353 348 342 337 336 336 336 333 330
109 108 111 112 113 114 116 116 116 115 109 94 80 89 102 108 110 114 125 133 122 123 100 99 97 90 76 58 46 35 22 13 2 352 349 346 341 336 335 334 334 336 329
110 112 111 113 114 114 115 114 113 114 114 115 115 108 110 118 120 131 167 124 107 105 101 98 92 83 69 55 41 24 11 4 0 343 347 343 337 334 335 333 330 330 320
108 113 117 117 116 116 117 118 119 121 121 122 124 128 139 143 133 134 130 110 106 101 97 92 82 70 61 48 30 13 2 0 354 345 347 340 336 334 332 329 328 327 326
116 118 121 119 118 119 121 121 123 124 125 125 124 120 133 139 127 122 113 104 97 93 88 85 85 77 64 44 24 5 356 358 356 349 344 339 336 333 329 327 326 325 326
120 123 121 118 120 122 123 123 124 124 126 125 126 129 140 129 117 113 107 102 96 92 89 80 72 64 45 30 15 1 356 359 357 350 343 337 333 330 330 330 330 329 328
121 121 119 119 119 123 125 124 126 128 129 129 131 133 132 121 116 112 110 106 102 96 91 85 76 64 47 28 15 6 1 2 353 344 335 332 331 330 329 331 328 327 329
124 124 124 126 129 132 129 129 131 131 131 131 131 130 129 127 122 119 118 113 110 106 100 91 76 60 33 9 359 12 23 2 341 333 331 324 322 325 326 326 323 326 325
124 124 125 127 129 130 130 131 130 131 132 134 135 136 133 132 131 132 129 127 128 121 119 116 98 59 18 358 359 14 17 351 333 327 320 314 319 322 325 323 322 321 322
124 124 125 126 128 130 133 135 137 139 140 141 140 139 139 141 142 143 145 147 151 147 162 157 81 352 326 327 19 13 349 327 319 316 311 308 314 322 328 321 320 321 323
Height
1501 1503 1506 1509 1512 1516 1518 1521 1524 1527 1530 1533 1536 1539 1542 1545 1548 1550 1553 1555 1557 1559 1561 1563 1564 1566 1567 1569 1570 1571 1571 1572 1572 1572 1572 1571 1570 1570 1569 1569 1568 1567 1566
1500 1502 1505 1508 1510 1513 1516 1519 1522 1525 1528 1531 1533 1536 1539 1542 1545 1548 1550 1553 1555 1557 1559 1560 1562 1563 1564 1566 1567 1568 1568 1569 1569 1569 1569 1568 1567 1566 1565 1565 1565 1565 1563
1499 1501 1503 1506 1508 1511 1514 1517 1519 1522 1525 1528 1531 1534 1536 1539 1542 1545 1548 1550 1552 1555 1556 1558 1559 1561 1561 1563 1564 1565 1565 1566 1566 1566 1566 1565 1565 1563 1562 1562 1562 1560 1560
1498 1500 1502 1504 1506 1509 1512 1515 1517 1520 1522 1525 1528 1531 1534 1537 1540 1542 1545 1548 1550 1552 1553 1555 1556 1558 1559 1560 1561 1561 1562 1562 1562 1563 1563 1562 1562 1560 1560 1559 1559 1557 1556
1496 1498 1500 1502 1505 1508 1510 1513 1515 1518 1520 1523 1525 1528 1531 1534 1537 1540 1542 1545 1547 1549 1550 1552 1554 1555 1556 1557 1558 1558 1559 1560 1560 1560 1560 1560 1559 1558 1557 1556 1556 1554 1552
1495 1497 1499 1501 1504 1506 1509 1511 1513 1515 1518 1521 1523 1526 1529 1532 1534 1537 1540 1542 1544 1546 1548 1549 1551 1552 1553 1554 1555 1555 1556 1557 1557 1557 1557 1557 1556 1555 1554 1553 1552 1551 1550
1494 1496 1498 1500 1502 1504 1507 1510 1512 1514 1517 1520 1522 1524 1527 1529 1532 1535 1537 1539 1542 1543 1545 1547 1549 1550 1551 1551 1552 1553 1553 1553 1554 1554 1554 1554 1553 1552 1551 1550 1549 1547 1545
1493 1495 1497 1499 1501 1503 1506 1508 1510 1512 1515 1518 1521 1523 1526 1528 1530 1533 1536 1538 1540 1541 1543 1545 1547 1548 1549 1550 1551 1551 1551 1551 1551 1551 1551 1550 1550 1549 1548 1548 1546 1544 1543
1492 1494 1496 1498 1500 1502 1504 1507 1509 1511 1514 1517 1520 1522 1524 1526 1529 1532 1534 1536 1538 1540 1542 1544 1545 1546 1547 1548 1549 1549 1549 1549 1549 1549 1549 1548 1547 1546 1546 1545 1544 1543 1542
1491 1493 1495 1497 1499 1501 1503 1506 1509 1511 1513 1516 1519 1521 1524 1526 1528 1530 1533 1535 1536 1539 1541 1543 1544 1545 1546 1547 1548 1548 1549 1549 1549 1548 1548 1547 1547 1545 1544 1543 1542 1541 1540
1489 1492 1494 1496 1498 1500 1503 1506 1508 1511 1513 1515 1517 1520 1523 1525 1527 1530 1532 1535 1537 1538 1540 1542 1543 1545 1546 1547 1547 1548 1548 1548 1549 1549 1549 1548 1547 1545 1544 1542 1540 1538 1537
1488 1490 1492 1495 1497 1499 1502 1504 1507 1510 1512 1515 1517 1519 1523 1525 1528 1530 1532 1535 1537 1538 1540 1542 1543 1545 1546 1546 1547 1547 1547 1548 1549 1549 1549 1548 1547 1545 1542 1540 1537 1535 1532
1486 1488 1491 1494 1496 1499 1501 1504 1506 1509 1512 1514 1517 1520 1523 1526 1528 1531 1532 1534 1536 1538 1540 1542 1543 1545 1546 1547 1547 1547 1548 1550 1550 1549 1549 1547 1545 1543 1540 1538 1536 1533 1530
1485 1487 1490 1492 1495 1498 1501 1504 1506 1509 1511 1514 1517 1521 1523 1526 1529 1531 1533 1535 1537 1539 1541 1543 1544 1546 1547 1548 1549 1549 1550 1549 1549 1549 1548 1546 1544 1542 1540 1538 1535 1533 1530
1485 1487 1490 1493 1495 1498 1501 1504 1507 1509 1512 1515 1518 1522 1525 1528 1531 1533 1535 1537 1539 1540 1542 1545 1548 1549 1550 1550 1551 1550 1550 1550 1549 1548 1547 1545 1544 1541 1539 1536 1533 1531 1528
1486 1488 1491 1494 1497 1499 1502 1505 1509 1512 1515 1519 1521 1524 1527 1530 1533 1535 1537 1539 1541 1543 1546 1548 1550 1550 1551 1552 1552 1552 1551 1550 1549 1548 1547 1545 1543 1540 1538 1535 1533 1530 1527
1487 1490 1493 1496 1499 1502 1505 1508 1511 1516 1520 1522 1525 1528 1530 1533 1536 1538 1540 1542 1544 1546 1549 1550 1551 1552 1553 1553 1553 1552 1551 1550 1548 1548 1546 1544 1542 1539 1536 1534 1531 1528 1525
1490 1493 1496 1499 1502 1505 1509 1513 1515 1518 1521 1525 1529 1532 1534 1536 1539 1541 1543 1545 1547 1549 1551 1552 1552 1553 1553 1553 1553 1552 1552 1550 1549 1547 1545 1543 1541 1538 1535 1532 1529 1526 1523
1493 1496 1499 1502 1506 1509 1512 1516 1519 1522 1525 1528 1532 1535 1538 1540 1542 1544 1546 1549 1550 1551 1552 1553 1554 1554 1554 1553 1553 1552 1551 1550 1548 1546 1544 1542 1539 1537 1534 1531 1528 1524 1521
1497 1500 1503 1506 1510 1513 1516 1519 1523 1526 1529 1533 1536 1539 1541 1544 1546 1548 1549 1551 1552 1553 1554 1554 1554 1554 1554 1553 1553 1552 1551 1549 1547 1545 1543 1541 1538 1535 1532 1529 1526 1523 1519
1502 1505 1508 1511 1514 1518 1521 1524 1527 1531 1534 1537 1540 1542 1544 1547 1549 1550 1551 1552 1553 1554 1554 1554 1554 1554 1554 1553 1552 1551 1550 1549 1547 1544 1542 1539 1536 1534 1531 1527 1524 1521 1517
1507 1510 1513 1516 1519 1523 1526 1529 1532 1535 1537 1540 1542 1544 1546 1549 1550 1551 1552 1553 1554 1554 1554 1555 1555 1554 1554 1553 1552 1551 1550 1548 1545 1543 1540 1538 1535 1532 1529 1526 1523 1519 1516
1512 1514 1517 1520 1523 1526 1529 1532 1535 1537 1540 1542 1544 1546 1548 1550 1551 1552 1553 1554 1554 1554 1554 1554 1555 1554 1553 1552 1551 1550 1548 1546 1544 1541 1538 1536 1533 1530 1528 1524 1521 1518 1514
1516 1519 1521 1523 1526 1529 1532 1534 1537 1539 1542 1544 1546 1548 1549 1550 1551 1552 1553 1554 1554 1555 1554 1554 1554 1553 1552 1551 1550 1549 1546 1544 1541 1539 1536 1533 1531 1529 1526 1523 1520 1516 1513
1520 1522 1524 1527 1530 1532 1534 1537 1539 1541 1543 1545 1547 1549 1550 1551 1552 1553 1554 1554 1554 1554 1554 1554 1554 1553 1551 1550 1549 1547 1544 1541 1539 1536 1533 1532 1530 1527 1524 1521 1518 1514 1511
1523 1525 1528 1530 1532 1534 1536 1539 1541 1543 1544 1546 1548 1549 1550 1551 1552 1553 1553 1554 1554 1554 1554 1554 1552 1551 1550 1549 1547 1544 1542 1540 1537 1534 1531 1529 1528 1526 1522 1519 1516 1512 1509